[Date Prev][Date Next][Thread Prev][Thread Next] - [Date Index][Thread Index][Author Index]

2 Line ISS Keps 4-21



ISS
1 25544U 98067A   04112.02523148  .00021712  00000-0  19194-3 0  6158
2 25544  51.6278 257.0967 0011110  53.7611  86.2880 15.68520207309341


----
Via the sarex mailing list at AMSAT.ORG courtesy of AMSAT-NA.
To unsubscribe, send "unsubscribe sarex" to Majordomo@amsat.org



AMSAT Top AMSAT Home